Location: Newark
(6.1731°S, 35.7419°E)
Time: 23:13:13
(UTC+00:00)

Altair - Pass Details

Date: 22 February 2020
Orbit: 1501 x 1682 km, 47.2° (Epoch: 01 April)

Event Time Altitude Azimuth Distance (km) Brightness Sun altitude
Rises 19:30:38 0° 229° (SW) 4,646 10.6 -51.5°
Reaches altitude 10° 19:33:44 10° 232° (SW) 3,656 9.9 -52.2°
Enters shadow 19:37:19 27° 241° (WSW) 2,587 8.9 -53.0°
